Location: Stanford
(52.2833°N, 2.4333°W)
Time: 01:46:28
(UTC+00:00)

Cosmos 1898 Rocket - Pass Details

Date: 22 January 2021
Orbit: 754 x 783 km, 74.0° (Epoch: 28 February)

Event Time Altitude Azimuth Distance (km) Brightness Sun altitude
Rises 18:45:47 0° 182° (S) 3,238 6.9 -19.0°
Reaches altitude 10° 18:48:14 10° 176° (S) 2,311 6.0 -19.3°
Maximum altitude 18:53:11 44° 106° (ESE) 1,063 3.8 -20.1°
Enters shadow 18:53:48 42° 87° (E) 1,092 3.8 -20.2°
